Wind_Speed
35 35 36 36 37 38 37 37 38 39 39 39 39 39 39 39 39 40 39 40 40 40 39 39 39 38 39 38 37 37 35 35 35 34 34 34 33 33 33 33 32 32 32
37 37 37 37 37 38 38 38 38 40 40 40 40 40 40 41 40 41 41 41 41 41 41 41 40 40 40 40 39 39 39 38 37 36 36 35 36 35 35 35 35 34 34
39 39 39 39 38 38 39 39 40 40 41 41 41 41 41 42 42 42 42 42 42 42 42 42 42 42 42 42 41 41 41 40 40 39 38 38 38 38 37 37 37 36 36
40 40 40 41 40 39 39 39 39 40 42 43 43 43 43 43 44 44 44 44 44 44 44 44 44 44 44 44 44 43 43 43 43 42 42 41 40 40 40 39 40 39 38
39 40 41 41 40 41 41 41 41 42 42 43 44 45 46 46 46 46 46 46 46 46 46 46 46 46 46 46 46 45 45 45 45 44 44 44 43 43 42 42 42 42 41
40 41 42 42 42 42 43 43 43 43 43 43 44 45 46 47 47 47 48 48 48 47 47 47 47 48 47 47 47 47 47 47 46 46 46 46 46 45 45 44 44 43 43
40 41 43 43 43 43 43 44 44 44 44 44 44 45 46 46 47 48 48 48 48 49 49 49 49 49 49 49 48 48 48 48 47 47 47 48 47 47 46 46 45 45 44
41 41 42 44 45 45 45 45 45 44 45 44 45 45 45 46 46 47 48 49 49 49 50 50 50 49 50 50 49 49 48 49 48 48 49 48 48 48 48 47 47 46 46
42 43 44 44 45 46 46 46 46 45 45 45 45 45 44 44 45 44 46 48 49 49 49 50 50 49 50 50 51 50 50 50 50 50 50 50 49 49 49 49 48 47 47
43 44 44 44 45 45 46 45 45 45 45 45 45 45 44 44 44 44 45 47 48 48 48 49 50 50 51 51 51 51 51 52 52 51 51 51 51 50 50 50 49 49 48
43 44 44 44 44 45 45 45 45 46 46 45 45 45 45 45 44 44 45 46 46 46 47 48 48 49 50 51 50 50 51 52 52 51 51 50 50 49 50 50 50 50 50
44 44 44 44 44 45 46 46 46 46 45 45 45 45 45 45 45 45 45 45 46 46 47 47 48 49 50 51 51 50 50 50 49 50 50 51 50 49 49 49 50 50 51
44 44 43 44 44 44 45 45 45 45 45 45 45 45 45 45 45 45 45 45 45 46 47 47 48 49 50 50 50 49 49 49 48 49 50 50 50 49 49 50 50 50 50
42 42 42 42 43 43 42 43 43 43 43 44 44 44 45 45 45 45 45 45 45 45 47 48 49 49 49 49 49 49 49 49 48 48 49 49 49 49 49 50 50 50 50
41 41 41 41 42 41 41 41 42 42 42 42 43 44 44 45 44 44 45 45 45 45 45 46 47 48 49 48 47 48 48 48 48 48 49 49 49 49 49 49 49 50 50
40 40 40 40 40 40 41 41 41 41 41 41 41 42 43 43 43 43 43 43 44 45 44 44 44 45 46 47 46 46 47 46 47 47 48 49 49 49 49 49 50 50 51
40 40 40 39 38 38 39 39 39 40 40 40 41 41 42 42 42 43 43 43 43 43 43 42 42 43 44 45 44 44 45 45 46 46 46 47 47 47 47 48 48 49 49
39 39 38 37 37 37 37 38 38 38 39 39 40 41 41 42 42 42 42 42 42 41 41 41 41 41 42 43 44 44 44 45 45 46 46 46 47 47 46 46 47 47 47
38 38 38 38 36 36 36 36 36 37 37 37 38 39 39 39 39 40 40 40 41 41 40 40 40 40 41 42 44 44 45 45 46 46 47 47 47 47 46 45 44 44 45
38 38 37 37 36 35 34 34 34 34 35 35 35 36 36 36 36 37 38 38 39 39 40 39 39 39 41 41 42 44 44 44 44 45 45 45 45 44 44 44 43 43 44
35 36 36 36 35 34 33 33 33 33 33 34 34 33 33 34 34 35 36 37 37 37 37 38 38 39 39 39 40 42 43 42 42 42 41 41 41 41 42 43 43 43 43
34 35 34 34 33 33 33 32 32 31 32 32 32 32 32 32 32 33 34 34 34 34 35 35 35 36 36 37 38 39 40 39 38 38 38 38 39 40 40 41 41 41 41
32 32 31 31 31 31 31 30 31 31 31 31 32 32 32 32 31 31 32 31 31 31 32 33 33 33 33 33 33 34 35 35 35 35 36 36 37 37 39 40 40 39 40
29 29 29 29 29 29 29 29 29 30 31 30 30 31 30 31 31 31 30 29 29 29 30 30 30 30 30 30 31 31 33 33 33 33 34 34 35 36 36 37 38 38 39
28 28 28 28 28 28 28 28 29 29 30 29 29 29 29 30 30 29 29 28 28 28 28 27 26 27 28 29 30 31 31 32 32 32 32 33 32 33 34 34 35 35 36
27 27 27 27 27 27 28 28 29 29 29 29 29 29 29 28 28 28 28 27 26 26 26 26 25 26 27 28 28 29 29 30 30 29 30 31 31 31 32 33 34 34 34
Wind_Direction
270 271 271 271 271 270 269 268 266 266 265 265 263 262 262 262 261 261 260 259 258 257 256 256 257 257 258 258 258 259 259 260 261 262 263 263 264 264 266 267 266 265 265
270 271 271 271 271 270 270 269 268 266 264 264 263 263 263 261 260 260 260 260 259 258 256 256 256 257 258 258 258 259 259 259 260 261 262 263 263 263 265 266 265 264 265
270 270 270 272 271 271 270 268 267 267 264 263 263 263 263 262 261 260 260 260 259 258 257 256 256 256 257 257 258 258 259 259 260 261 261 262 263 263 263 264 264 264 264
271 270 270 271 271 271 270 269 268 268 266 264 263 263 263 263 262 261 261 260 260 259 258 257 256 256 257 257 258 258 259 259 260 261 262 262 263 263 263 263 264 263 263
272 271 270 270 270 270 270 269 269 268 268 265 263 263 262 263 262 261 260 260 260 259 258 257 256 257 258 258 258 258 258 259 260 260 261 262 262 263 263 263 264 264 264
273 272 271 271 271 270 270 270 270 270 269 268 265 264 262 262 262 262 260 260 260 259 258 258 257 257 257 257 258 258 259 260 260 260 261 261 262 262 262 262 263 264 264
274 272 271 270 270 270 269 269 269 270 270 269 267 265 264 263 262 262 262 261 260 259 259 259 259 257 256 256 258 258 259 259 260 260 260 261 261 262 262 262 262 263 263
275 274 273 272 271 270 270 270 269 270 269 269 268 267 266 264 263 263 263 262 261 261 260 260 259 258 256 256 257 258 259 259 259 259 259 260 261 261 262 262 262 262 262
275 275 274 274 272 271 270 270 269 269 269 269 269 268 267 265 264 264 264 263 262 262 261 260 259 257 256 256 256 257 258 258 259 259 259 260 261 261 261 261 261 261 261
277 276 275 274 274 272 269 268 268 268 268 269 269 268 268 268 266 265 264 264 263 262 260 259 258 257 256 257 257 257 258 258 258 259 259 260 261 261 261 261 260 260 260
277 277 276 275 273 272 270 268 268 267 268 268 269 269 268 268 268 266 265 264 263 261 260 259 259 257 257 257 257 257 258 259 258 259 260 261 261 261 261 261 261 260 259
278 277 276 275 273 272 271 269 269 268 267 267 268 268 268 268 268 268 265 263 263 262 261 260 259 258 258 258 258 259 259 259 259 260 261 261 261 261 261 261 261 260 260
277 277 276 276 274 273 272 270 269 268 267 266 266 267 268 268 268 268 266 264 263 261 260 260 260 260 259 259 259 259 259 259 260 261 261 262 262 262 261 261 261 261 260
277 277 276 276 275 274 274 272 270 269 268 267 267 267 267 268 267 267 266 265 264 262 261 260 260 261 259 258 258 258 259 260 260 261 262 262 262 262 262 262 261 261 260
276 276 276 275 275 275 274 273 272 271 270 270 269 267 267 267 266 266 266 266 265 263 262 262 261 261 259 257 258 259 259 260 261 262 262 262 263 263 263 263 262 261 260
276 276 275 275 275 275 275 274 274 273 271 271 271 270 268 267 266 266 266 266 266 265 264 264 262 261 259 257 258 259 259 261 262 262 263 262 262 264 264 264 263 262 260
276 277 276 276 275 275 275 275 274 274 273 271 271 270 269 267 267 266 265 265 266 266 265 263 262 260 259 258 257 258 260 262 263 263 263 263 263 264 265 264 263 262 260
275 276 276 276 276 275 275 276 276 274 274 272 271 271 270 268 266 266 265 265 265 265 264 263 261 260 259 259 258 260 262 263 264 264 264 264 263 263 264 265 263 262 260
276 276 275 275 276 276 275 277 277 276 275 274 274 272 271 270 268 266 266 266 265 265 264 262 260 260 261 261 261 261 262 263 264 265 265 264 263 262 263 263 263 262 260
276 275 275 275 276 277 277 277 277 277 277 276 275 273 271 270 269 267 266 266 266 265 264 262 261 262 262 263 263 262 263 264 264 265 264 263 262 261 261 261 262 261 259
276 276 276 276 276 277 277 277 277 277 277 276 275 273 272 271 268 267 267 268 267 266 264 262 262 263 263 264 264 263 263 263 264 264 263 262 261 260 260 261 261 259 258
275 275 276 276 276 276 277 276 276 277 277 276 275 273 272 271 268 268 269 268 268 266 264 262 263 263 263 264 264 263 263 262 263 261 262 262 261 259 259 260 259 257 256
275 275 276 277 276 277 277 276 277 278 278 278 275 274 273 272 268 268 268 268 267 266 266 265 264 264 264 263 264 264 263 262 262 261 261 261 261 259 258 257 255 255 257
276 275 275 276 278 278 278 277 278 278 278 278 276 275 273 272 270 269 268 268 268 268 267 265 264 264 264 264 265 265 264 264 264 263 264 263 261 259 257 255 253 254 256
276 275 275 276 277 278 278 278 278 278 278 277 276 275 274 273 270 268 267 267 266 266 265 263 261 263 264 265 265 265 267 266 265 265 264 265 263 261 258 256 257 258 257
278 276 276 276 277 278 277 278 278 279 278 277 277 275 274 273 271 268 266 264 263 263 263 261 261 263 264 266 267 267 267 268 266 266 265 265 264 262 259 258 259 260 259
Height
5766 5765 5764 5764 5763 5763 5763 5763 5763 5763 5764 5764 5764 5765 5766 5766 5767 5767 5768 5769 5770 5771 5772 5773 5774 5775 5776 5777 5778 5779 5780 5781 5782 5783 5783 5784 5785 5785 5786 5786 5787 5787 5788
5757 5756 5756 5755 5754 5753 5753 5753 5753 5753 5753 5754 5754 5755 5755 5756 5757 5757 5758 5759 5760 5761 5762 5763 5765 5766 5767 5768 5769 5770 5771 5772 5773 5775 5775 5776 5777 5777 5778 5779 5779 5780 5781
5748 5747 5746 5745 5744 5744 5744 5743 5743 5742 5743 5743 5744 5745 5745 5746 5746 5747 5748 5748 5749 5750 5752 5753 5754 5755 5756 5758 5759 5760 5761 5763 5764 5765 5766 5767 5768 5768 5769 5770 5771 5772 5773
5738 5737 5736 5735 5734 5734 5733 5733 5732 5732 5732 5732 5733 5734 5734 5735 5735 5736 5737 5737 5738 5739 5740 5742 5743 5744 5745 5747 5748 5749 5751 5752 5754 5755 5756 5757 5758 5759 5760 5761 5762 5763 5764
5728 5727 5726 5725 5724 5723 5723 5723 5722 5722 5721 5721 5722 5722 5722 5723 5723 5724 5725 5726 5727 5728 5729 5730 5731 5733 5734 5735 5737 5738 5740 5741 5742 5744 5745 5747 5748 5749 5750 5751 5752 5754 5755
5717 5716 5715 5715 5714 5713 5712 5712 5711 5710 5710 5710 5710 5710 5710 5711 5711 5712 5713 5714 5715 5715 5716 5718 5719 5721 5722 5723 5725 5726 5728 5729 5731 5732 5734 5735 5737 5738 5739 5741 5742 5743 5744
5706 5705 5704 5704 5702 5701 5701 5700 5699 5699 5698 5698 5698 5698 5698 5698 5698 5699 5699 5700 5701 5702 5703 5704 5706 5707 5709 5711 5712 5714 5715 5717 5718 5720 5721 5723 5724 5726 5727 5729 5731 5732 5734
5695 5694 5693 5692 5691 5689 5689 5688 5687 5687 5686 5685 5685 5685 5686 5687 5686 5686 5686 5687 5688 5689 5690 5691 5692 5693 5695 5697 5699 5701 5702 5704 5705 5707 5709 5710 5712 5714 5715 5717 5719 5720 5722
5684 5682 5681 5679 5678 5677 5676 5676 5675 5674 5674 5673 5672 5672 5672 5673 5674 5674 5673 5673 5674 5675 5676 5677 5678 5679 5681 5683 5685 5687 5689 5691 5692 5694 5696 5697 5699 5700 5702 5704 5706 5708 5710
5672 5670 5669 5667 5665 5664 5663 5663 5662 5662 5662 5661 5660 5660 5660 5660 5661 5662 5661 5660 5660 5661 5662 5663 5664 5665 5667 5669 5672 5674 5676 5677 5679 5681 5682 5684 5685 5687 5688 5690 5693 5695 5697
5660 5658 5656 5655 5653 5652 5651 5650 5650 5649 5649 5649 5648 5648 5648 5647 5647 5648 5649 5648 5647 5647 5648 5649 5650 5652 5654 5656 5658 5660 5662 5664 5665 5667 5669 5670 5672 5674 5675 5677 5679 5681 5684
5648 5646 5644 5642 5641 5639 5638 5638 5637 5636 5636 5636 5636 5636 5635 5635 5635 5635 5635 5635 5635 5635 5635 5636 5637 5639 5641 5642 5644 5646 5648 5651 5652 5654 5656 5658 5659 5661 5662 5664 5666 5668 5670
5636 5634 5632 5630 5628 5627 5625 5625 5624 5624 5623 5623 5623 5623 5623 5623 5622 5622 5622 5622 5623 5623 5623 5624 5624 5626 5627 5629 5631 5633 5635 5637 5639 5641 5643 5644 5646 5648 5649 5651 5653 5654 5656
5624 5622 5620 5618 5616 5615 5613 5612 5612 5611 5611 5611 5611 5611 5610 5610 5609 5609 5609 5609 5610 5611 5611 5612 5612 5613 5615 5616 5618 5620 5622 5625 5626 5628 5630 5631 5633 5635 5636 5638 5639 5641 5643
5613 5611 5608 5606 5605 5603 5602 5601 5600 5600 5599 5599 5598 5598 5598 5597 5597 5596 5596 5596 5597 5598 5599 5599 5600 5600 5602 5604 5606 5608 5610 5612 5614 5615 5617 5618 5620 5621 5623 5624 5626 5627 5629
5601 5599 5597 5595 5593 5592 5590 5590 5589 5588 5587 5587 5586 5586 5586 5585 5585 5584 5584 5584 5584 5585 5586 5586 5587 5588 5589 5591 5593 5595 5598 5599 5601 5602 5604 5605 5607 5608 5609 5611 5612 5614 5616
5590 5588 5586 5584 5583 5581 5580 5578 5577 5577 5576 5575 5575 5574 5574 5573 5573 5572 5572 5572 5572 5572 5573 5574 5574 5575 5577 5579 5581 5583 5584 5586 5588 5589 5590 5592 5593 5595 5596 5597 5599 5600 5602
5579 5577 5575 5574 5572 5571 5570 5568 5567 5566 5565 5564 5563 5563 5562 5561 5561 5560 5560 5560 5560 5560 5561 5562 5563 5564 5565 5567 5569 5570 5572 5573 5574 5576 5577 5578 5580 5581 5583 5584 5585 5587 5589
5569 5567 5565 5564 5562 5561 5560 5558 5557 5555 5554 5553 5552 5551 5550 5550 5549 5549 5549 5549 5549 5549 5549 5550 5551 5552 5553 5555 5556 5558 5559 5560 5561 5562 5564 5565 5567 5568 5570 5571 5572 5574 5576
5558 5557 5555 5554 5552 5551 5549 5548 5547 5545 5544 5543 5541 5540 5540 5539 5539 5538 5538 5538 5537 5537 5537 5538 5540 5541 5542 5543 5544 5545 5546 5547 5549 5550 5550 5552 5553 5554 5556 5558 5560 5561 5563
5548 5547 5546 5544 5542 5541 5540 5538 5537 5536 5535 5534 5532 5531 5530 5529 5529 5528 5528 5527 5527 5526 5526 5527 5529 5530 5531 5532 5533 5533 5534 5535 5536 5537 5538 5539 5540 5542 5543 5545 5547 5549 5551
5539 5537 5536 5535 5533 5532 5530 5529 5528 5527 5525 5524 5523 5522 5521 5520 5520 5519 5518 5518 5517 5516 5516 5517 5518 5519 5520 5521 5521 5522 5522 5524 5525 5527 5526 5527 5527 5529 5531 5533 5535 5537 5539
5530 5528 5527 5526 5525 5523 5522 5520 5519 5518 5516 5515 5514 5513 5512 5511 5510 5510 5509 5509 5508 5508 5508 5508 5509 5509 5510 5511 5512 5512 5512 5512 5514 5515 5515 5516 5517 5518 5519 5521 5523 5525 5527
5521 5520 5519 5518 5517 5515 5514 5512 5511 5509 5508 5506 5505 5504 5503 5502 5502 5501 5501 5500 5500 5500 5500 5500 5501 5501 5501 5502 5502 5503 5503 5504 5505 5506 5506 5507 5508 5508 5509 5511 5512 5514 5516
5513 5512 5511 5510 5509 5507 5506 5504 5503 5501 5500 5498 5497 5496 5495 5494 5493 5492 5492 5493 5493 5493 5492 5493 5493 5493 5494 5494 5494 5495 5495 5495 5497 5497 5497 5498 5499 5499 5501 5502 5503 5505 5506
5505 5504 5503 5502 5501 5499 5498 5496 5495 5494 5492 5491 5490 5488 5487 5486 5485 5484 5484 5485 5486 5486 5485 5486 5486 5487 5487 5487 5487 5487 5487 5488 5488 5489 5489 5489 5490 5491 5492 5494 5495 5496 5497